SAS104 EDDH-EKCH

Flight info

Callsign SAS104
Flight time 0h 30m
Altitude 21000
Route LUGEG3G LUGEG P605 GESKA Z711 MONAK
Aircraft B736/M-SDE2E3FGHIRWXY/LB1

Departure

Time 2026-04-23 07:41
Airport Hamburg Helmut Schmidt Airport (EDDH)

Arrival

Time 2026-04-23 08:12
Airport Copenhagen Kastrup Airport (EKCH)
Time Latitude Longitude Altitude Speed Heading
2026-04-23 07:15 53.63168 10.00369 47 ft 0 kts 86°
2026-04-23 07:31 53.63167 10.00352 47 ft 4 kts 86°
2026-04-23 07:31 53.63165 10.00309 47 ft 4 kts 84°
2026-04-23 07:31 53.63167 10.00267 47 ft 4 kts 128°
2026-04-23 07:31 53.63186 10.00246 47 ft 0 kts 173°
2026-04-23 07:34 53.63179 10.00247 44 ft 3 kts 173°
2026-04-23 07:34 53.63126 10.00257 47 ft 12 kts 175°
2026-04-23 07:34 53.63037 10.00229 47 ft 14 kts 213°
2026-04-23 07:35 53.62957 10.00142 46 ft 13 kts 211°
2026-04-23 07:35 53.62881 10.00058 44 ft 13 kts 219°
2026-04-23 07:35 53.62840 9.99946 46 ft 0 kts 243°
2026-04-23 07:35 53.62839 9.99941 46 ft 1 kts 244°
2026-04-23 07:36 53.62836 9.99933 43 ft 0 kts 244°
2026-04-23 07:39 53.62826 9.99895 44 ft 16 kts 245°
2026-04-23 07:39 53.62833 9.99767 44 ft 9 kts 338°
2026-04-23 07:39 53.62856 9.99749 44 ft 1 kts 335°
2026-04-23 07:40 53.62858 9.99748 44 ft 0 kts 335°
2026-04-23 07:40 53.62863 9.99745 44 ft 1 kts 334°
2026-04-23 07:40 53.62875 9.99734 43 ft 3 kts 333°
2026-04-23 07:41 53.62983 9.99638 42 ft 48 kts 332°
2026-04-23 07:41 53.63500 9.99202 46 ft 115 kts 333°
2026-04-23 07:41 53.64359 9.98487 128 ft 156 kts 331°
2026-04-23 07:41 53.65305 9.97749 965 ft 148 kts 330°
2026-04-23 07:42 53.66280 9.96928 1258 ft 165 kts 330°
2026-04-23 07:42 53.67320 9.96007 1611 ft 170 kts 329°
2026-04-23 07:42 53.68358 9.95082 2172 ft 169 kts 330°
2026-04-23 07:42 53.69490 9.94628 2729 ft 171 kts 359°
2026-04-23 07:43 53.70685 9.94693 3211 ft 175 kts 356°
2026-04-23 07:43 53.71998 9.94693 3645 ft 196 kts 359°
2026-04-23 07:43 53.73318 9.95411 4450 ft 210 kts 29°
2026-04-23 07:43 53.74360 9.97410 4818 ft 248 kts 53°
2026-04-23 07:44 53.75201 10.00092 5373 ft 265 kts 58°
2026-04-23 07:44 53.76005 10.02946 6194 ft 271 kts 59°
2026-04-23 07:44 53.76809 10.05848 7085 ft 275 kts 60°
2026-04-23 07:44 53.77618 10.08751 7995 ft 277 kts 60°
2026-04-23 07:45 53.78458 10.11742 9025 ft 278 kts 60°
2026-04-23 07:45 53.79289 10.14678 10008 ft 282 kts 60°
2026-04-23 07:45 53.80150 10.17707 10823 ft 293 kts 60°
2026-04-23 07:45 53.81083 10.20959 11087 ft 322 kts 60°
2026-04-23 07:46 53.82099 10.24505 11434 ft 345 kts 61°
2026-04-23 07:46 53.83155 10.28208 12170 ft 353 kts 61°
2026-04-23 07:46 53.84226 10.31977 13092 ft 356 kts 61°
2026-04-23 07:46 53.85306 10.35778 14012 ft 361 kts 62°
2026-04-23 07:47 53.86402 10.39637 14841 ft 365 kts 62°
2026-04-23 07:47 53.87506 10.43524 15726 ft 368 kts 62°
2026-04-23 07:47 53.88620 10.47449 16610 ft 371 kts 62°
2026-04-23 07:47 53.89743 10.51415 17470 ft 375 kts 62°
2026-04-23 07:48 53.90880 10.55427 18326 ft 379 kts 62°
2026-04-23 07:48 53.92029 10.59474 19104 ft 382 kts 62°
2026-04-23 07:48 53.93186 10.63558 19866 ft 385 kts 63°
2026-04-23 07:48 53.94459 10.67565 20589 ft 387 kts 53°
2026-04-23 07:49 53.96258 10.71001 21175 ft 393 kts 46°
2026-04-23 07:49 53.98181 10.74395 21299 ft 405 kts 46°
2026-04-23 07:49 54.00163 10.77908 21323 ft 419 kts 46°
2026-04-23 07:49 54.02196 10.81554 21321 ft 430 kts 46°
2026-04-23 07:50 54.04262 10.85304 21317 ft 439 kts 46°
2026-04-23 07:50 54.06345 10.89112 21304 ft 439 kts 46°
2026-04-23 07:50 54.08384 10.92852 21295 ft 434 kts 46°
2026-04-23 07:50 54.10435 10.96621 21300 ft 433 kts 46°
2026-04-23 07:51 54.12492 11.00404 21306 ft 433 kts 46°
2026-04-23 07:51 54.14357 11.03844 21307 ft 434 kts 47°
2026-04-23 07:51 54.16267 11.07373 21298 ft 434 kts 47°
2026-04-23 07:51 54.18318 11.11166 21297 ft 435 kts 47°
2026-04-23 07:52 54.20375 11.14977 21296 ft 436 kts 47°
2026-04-23 07:52 54.22426 11.18798 21296 ft 437 kts 47°
2026-04-23 07:52 54.24473 11.22636 21309 ft 436 kts 46°
2026-04-23 07:52 54.25822 11.25174 21302 ft 436 kts 46°
2026-04-23 07:53 54.27857 11.29009 21296 ft 435 kts 46°
2026-04-23 07:53 54.29884 11.32833 21297 ft 434 kts 46°
2026-04-23 07:53 54.31914 11.36665 21286 ft 433 kts 46°
2026-04-23 07:53 54.33935 11.40482 21278 ft 433 kts 46°
2026-04-23 07:54 54.35959 11.44310 21286 ft 433 kts 46°
2026-04-23 07:54 54.37978 11.48133 21285 ft 433 kts 46°
2026-04-23 07:54 54.40008 11.51961 21285 ft 433 kts 46°
2026-04-23 07:54 54.42038 11.55788 21286 ft 433 kts 46°
2026-04-23 07:55 54.44067 11.59618 21279 ft 433 kts 46°
2026-04-23 07:55 54.46095 11.63456 21280 ft 433 kts 46°
2026-04-23 07:55 54.48118 11.67290 21278 ft 433 kts 46°
2026-04-23 07:55 54.50143 11.71123 21276 ft 433 kts 46°
2026-04-23 07:56 54.52130 11.74888 21265 ft 423 kts 46°
2026-04-23 07:56 54.54047 11.78529 21254 ft 399 kts 46°
2026-04-23 07:56 54.55875 11.82006 21266 ft 387 kts 46°
2026-04-23 07:56 54.57688 11.85412 21272 ft 385 kts 44°
2026-04-23 07:57 54.59760 11.88317 21272 ft 384 kts 32°
2026-04-23 07:57 54.62116 11.90504 21280 ft 384 kts 24°
2026-04-23 07:57 54.64631 11.92055 21281 ft 384 kts 18°
2026-04-23 07:57 54.67208 11.93449 21291 ft 396 kts 17°
2026-04-23 07:58 54.69887 11.94888 21288 ft 411 kts 17°
2026-04-23 07:58 54.72657 11.96383 21283 ft 422 kts 17°
2026-04-23 07:58 54.75470 11.97915 21272 ft 424 kts 17°
2026-04-23 07:58 54.78259 11.99457 21262 ft 417 kts 17°
2026-04-23 07:59 54.81020 12.00985 20966 ft 416 kts 17°
2026-04-23 07:59 54.83772 12.02507 20207 ft 412 kts 17°
2026-04-23 07:59 54.86486 12.04012 19448 ft 406 kts 17°
2026-04-23 07:59 54.89156 12.05497 18707 ft 401 kts 17°
2026-04-23 08:00 54.91761 12.06949 17893 ft 396 kts 17°
2026-04-23 08:00 54.94255 12.08342 17103 ft 392 kts 16°
2026-04-23 08:00 54.96837 12.09786 16301 ft 388 kts 16°
2026-04-23 08:00 54.99387 12.11215 15511 ft 383 kts 16°
2026-04-23 08:01 55.01905 12.12628 14749 ft 378 kts 15°
2026-04-23 08:01 55.04395 12.14027 13986 ft 374 kts 15°
2026-04-23 08:01 55.06860 12.15412 13148 ft 371 kts 15°
2026-04-23 08:01 55.09308 12.16790 12328 ft 368 kts 15°
2026-04-23 08:02 55.11736 12.18159 11530 ft 364 kts 15°
2026-04-23 08:02 55.14125 12.19507 10939 ft 355 kts 15°
2026-04-23 08:02 55.16413 12.20803 10740 ft 336 kts 15°
2026-04-23 08:02 55.18583 12.22034 10573 ft 319 kts 15°
2026-04-23 08:03 55.20652 12.23207 10393 ft 305 kts 15°
2026-04-23 08:03 55.22631 12.24329 10222 ft 292 kts 15°
2026-04-23 08:03 55.24521 12.25402 10106 ft 277 kts 15°
2026-04-23 08:03 55.26300 12.26413 9749 ft 264 kts 15°
2026-04-23 08:04 55.28033 12.27397 9150 ft 261 kts 15°
2026-04-23 08:04 55.29730 12.28360 8570 ft 258 kts 15°
2026-04-23 08:04 55.31428 12.29325 8023 ft 254 kts 15°
2026-04-23 08:04 55.33068 12.30260 7632 ft 240 kts 15°
2026-04-23 08:05 55.34628 12.31151 6997 ft 232 kts 15°
2026-04-23 08:05 55.36150 12.32018 6249 ft 228 kts 15°
2026-04-23 08:05 55.37640 12.32870 5502 ft 222 kts 15°
2026-04-23 08:05 55.39097 12.33703 4745 ft 218 kts 15°
2026-04-23 08:06 55.40514 12.34514 4027 ft 215 kts 15°
2026-04-23 08:06 55.41928 12.35324 3453 ft 212 kts 14°
2026-04-23 08:06 55.43287 12.36153 3237 ft 200 kts 21°
2026-04-23 08:06 55.44407 12.37525 3099 ft 190 kts 34°
2026-04-23 08:07 55.45383 12.38941 3002 ft 174 kts 34°
2026-04-23 08:07 55.46293 12.40301 2991 ft 170 kts 35°
2026-04-23 08:07 55.47192 12.41678 3001 ft 172 kts 35°
2026-04-23 08:07 55.48097 12.43077 2943 ft 174 kts 36°
2026-04-23 08:08 55.49010 12.44495 2726 ft 175 kts 36°
2026-04-23 08:08 55.49923 12.45917 2483 ft 173 kts 36°
2026-04-23 08:08 55.50801 12.47286 2245 ft 162 kts 36°
2026-04-23 08:08 55.51620 12.48558 2043 ft 155 kts 36°
2026-04-23 08:09 55.52429 12.49813 1834 ft 154 kts 36°
2026-04-23 08:09 55.53233 12.51061 1618 ft 154 kts 36°
2026-04-23 08:09 55.54039 12.52312 1406 ft 154 kts 36°
2026-04-23 08:09 55.54836 12.53551 1189 ft 147 kts 37°
2026-04-23 08:10 55.55568 12.54689 1015 ft 133 kts 37°
2026-04-23 08:10 55.56245 12.55739 822 ft 128 kts 37°
2026-04-23 08:10 55.57596 12.57825 462 ft 129 kts 38°
2026-04-23 08:11 55.58247 12.58847 298 ft 125 kts 39°
2026-04-23 08:11 55.58898 12.59860 128 ft 124 kts 38°
2026-04-23 08:11 55.59543 12.60844 20 ft 115 kts 41°
2026-04-23 08:11 55.60052 12.61636 18 ft 80 kts 42°
2026-04-23 08:12 55.60378 12.62141 16 ft 48 kts 40°
2026-04-23 08:12 55.60660 12.62352 17 ft 42 kts 12°
2026-04-23 08:12 55.60899 12.62572 16 ft 37 kts 41°
2026-04-23 08:12 55.61086 12.62859 16 ft 34 kts 41°
2026-04-23 08:13 55.61253 12.63119 16 ft 30 kts 43°
2026-04-23 08:13 55.61406 12.63354 16 ft 28 kts 40°
2026-04-23 08:13 55.61549 12.63575 16 ft 26 kts 41°
2026-04-23 08:13 55.61681 12.63783 16 ft 24 kts 40°
2026-04-23 08:14 55.61805 12.63973 16 ft 23 kts 41°
2026-04-23 08:14 55.61935 12.64126 17 ft 22 kts 28°
2026-04-23 08:14 55.62072 12.64241 16 ft 22 kts 23°
2026-04-23 08:14 55.62206 12.64352 14 ft 21 kts 25°
2026-04-23 08:15 55.62343 12.64428 17 ft 20 kts 15°
2026-04-23 08:15 55.62460 12.64482 16 ft 10 kts 11°
2026-04-23 08:15 55.62514 12.64428 16 ft 9 kts 301°
2026-04-23 08:15 55.62543 12.64345 17 ft 0 kts 303°
2026-04-23 08:18 55.62546 12.64337 16 ft 3 kts 302°
2026-04-23 08:18 55.62564 12.64290 18 ft 6 kts 306°
2026-04-23 08:19 55.62608 12.64263 16 ft 8 kts 25°
2026-04-23 08:19 55.62665 12.64315 16 ft 11 kts 22°
2026-04-23 08:19 55.62720 12.64365 16 ft 2 kts 68°
2026-04-23 08:19 55.62718 12.64385 17 ft 2 kts 102°
2026-04-23 08:20 55.62714 12.64419 16 ft 4 kts 102°
2026-04-23 08:20 55.62710 12.64459 16 ft 0 kts 102°